ALPHASAT

Last updated on Sun Jun 21 2026 00:03:05 GMT+0000 (Coordinated Universal Time)

1 39215U 13038A 26171.32565470 .00000128 00000+0 00000+0 0 9993 2 39215 2.9990 1.4107 0001799 89.2089 320.0084 1.00272303 44054
UTC large
Height (km)
Speed (km/s)
/
Latitude / Longitude
Inclination (degrees)
Orbital Period (minutes)
Azimuth
Elevation
Range (km)
Doppler Factor

Next 0 passes for location: London (51.5072 / 0.1276)

No passes found over London.
ALPHASAT